Weather History for Detroit, MI

Change the Weather History Date:

Monday, January 28, 2013

  Actual Average Record
Temperature  
Mean Temperature 38 °F -  
Max Temperature 46 °F 31 °F 55 °F (2002)
Min Temperature 30 °F 19 °F -7 °F (2014)
Degree Days  
Heating Degree Days 27    
Moisture  
Dew Point 38 °F    
Average Humidity 94    
Maximum Humidity 100    
Minimum Humidity 86    
Precipitation  
Precipitation 0.19 in - - ()
Sea Level Pressure  
Sea Level Pressure 29.98 in    
Wind  
Wind Speed 9 mph (SSW)    
Max Wind Speed 15 mph    
Max Gust Speed 20 mph    
Visibility 5 miles    
Events Fog , Rain    
Averages and records for this station are not official NWS values.
T = Trace of Precipitation, MM = Missing Value Source: NWS Daily Summary

Daily Weather History Graph

Daily Weather History Graph

Search for Another Location

Airport:

Trip Planner

Search our weather history database for the weather conditions in past years. The results will help you decide how hot, cold, wet, or windy it might be!

Date:

Astronomy

Jan. 28, 2013 Rise Set
Actual Time 7:49 AM EST 5:41 PM EST
Civil Twilight 7:19 AM EST 6:11 PM EST
Nautical Twilight 6:45 AM EST 6:45 PM EST
Astronomical Twilight 6:12 AM EST 7:18 PM EST
Moon 7:38 PM EST (1/28) 8:11 AM EST (1/28)
Length of Visible Light 10h 51m
Length of Day
9h 51m
Full, 98% of the Moon is Illuminated
Jan 28
Full
Feb 3
Last Quarter
Feb 10
New
Feb 17
First Quarter
Feb 25
Full

Hourly Weather History & Observations

Time (EST) Temp. Windchill Dew Point Humidity Pressure Visibility Wind Dir Wind Speed Gust Speed Precip Events Conditions
12:01 AM - - - N/A% 30.15 in 5.0 mi SSE 11.5 mph 18.4 mph 0.02 in Rain Light Freezing Rain
12:13 AM - - - N/A% 30.15 in 5.0 mi SSE 9.2 mph - 0.03 in Rain Light Freezing Rain
12:53 AM - - - N/A% 30.15 in 5.0 mi SSE 8.1 mph - 0.06 in Rain Light Freezing Rain
1:37 AM 30.2 °F 21.9 °F 26.6 °F 86% 30.12 in 5.0 mi SSE 9.2 mph - 0.05 in   Overcast
1:48 AM 30.2 °F 21.3 °F 26.6 °F 86% 30.11 in 6.0 mi SE 10.4 mph - 0.05 in Rain Light Freezing Rain
1:53 AM 30.2 °F 20.8 °F 27.0 °F 88% 30.11 in 6.0 mi SSE 11.5 mph - 0.05 in Rain Light Freezing Rain
2:16 AM - - - N/A% 30.08 in 8.0 mi SSE 11.5 mph - 0.00 in   Overcast
2:32 AM - - - N/A% 30.06 in 7.0 mi SSE 13.8 mph - 0.00 in Rain Light Freezing Rain
2:39 AM - - - N/A% 30.06 in 7.0 mi SSE 12.7 mph 19.6 mph 0.00 in Rain Light Freezing Rain
2:49 AM - - - N/A% 30.06 in 7.0 mi South 10.4 mph - 0.00 in   Overcast
2:53 AM - - - N/A% 30.06 in 6.0 mi SSE 15.0 mph 19.6 mph 0.00 in Rain Light Freezing Rain
3:07 AM - - - N/A% 30.06 in 4.0 mi South 10.4 mph 18.4 mph 0.03 in Rain Light Freezing Rain
3:25 AM - - - N/A% 30.04 in 5.0 mi SSE 10.4 mph - 0.06 in Rain Light Freezing Rain
3:53 AM - - - N/A% 30.04 in 6.0 mi South 5.8 mph - 0.06 in   Haze
4:01 AM - - - N/A% 30.04 in 5.0 mi South 4.6 mph - 0.01 in Rain Light Freezing Rain
4:20 AM - - - N/A% 30.02 in 2.5 mi South 5.8 mph - 0.01 in Rain Light Freezing Rain
4:27 AM - - - N/A% 30.02 in 2.0 mi South 4.6 mph - 0.01 in   Overcast
4:39 AM - - - N/A% 30.01 in 2.5 mi South 6.9 mph - 0.01 in   Overcast
4:53 AM - - - N/A% 30.00 in 2.5 mi South 8.1 mph - 0.01 in   Overcast
5:53 AM 33.8 °F 27.0 °F 32.0 °F 93% 29.99 in 2.0 mi South 8.1 mph - N/A   Overcast
6:53 AM 33.8 °F 27.0 °F 33.1 °F 97% 29.96 in 2.5 mi South 8.1 mph - N/A   Overcast
7:53 AM 35.6 °F 29.9 °F 33.1 °F 91% 29.95 in 2.5 mi SSW 6.9 mph - N/A   Overcast
8:11 AM 35.6 °F 28.0 °F 33.8 °F 93% 29.92 in 1.0 mi SSW 10.4 mph - N/A   Overcast
8:15 AM 35.6 °F 29.2 °F 33.8 °F 93% 29.92 in 0.8 mi SSW 8.1 mph - N/A   Overcast
8:53 AM 37.4 °F 31.4 °F 34.0 °F 87% 29.93 in 0.5 mi South 8.1 mph - N/A Fog Fog
9:53 AM 37.4 °F 30.8 °F 37.0 °F 99% 29.91 in 0.5 mi SSW 9.2 mph - 0.00 in Fog , Rain Light Rain
10:41 AM 37.4 °F 30.3 °F 37.4 °F 100% 29.89 in 1.2 mi SSW 10.4 mph - 0.01 in   Overcast
10:53 AM 37.4 °F 31.4 °F 37.0 °F 99% 29.91 in 1.5 mi SW 8.1 mph - 0.01 in   Overcast
11:23 AM 39.2 °F 32.5 °F 37.4 °F 93% 29.89 in 1.2 mi SW 10.4 mph - N/A   Overcast
11:53 AM 39.2 °F 32.5 °F 37.9 °F 95% 29.90 in 2.0 mi SW 10.4 mph - N/A   Overcast
12:21 PM 41.0 °F 34.3 °F 39.2 °F 93% 29.87 in 3.0 mi SW 11.5 mph - N/A   Overcast
12:51 PM 41.0 °F 34.3 °F 39.2 °F 93% 29.86 in 3.0 mi SW 11.5 mph - N/A   Overcast
12:53 PM 41.0 °F 34.3 °F 39.9 °F 96% 29.86 in 4.0 mi SW 11.5 mph - N/A   Overcast
1:53 PM 42.8 °F 37.0 °F 42.8 °F 100% 29.87 in 3.0 mi SW 10.4 mph - N/A   Overcast
2:25 PM 44.6 °F 38.8 °F 42.8 °F 93% 29.85 in 2.5 mi WSW 11.5 mph - N/A   Overcast
2:53 PM 44.6 °F 38.8 °F 43.0 °F 94% 29.85 in 2.5 mi WSW 11.5 mph - N/A   Overcast
3:38 PM 44.6 °F 38.8 °F 44.6 °F 100% 29.87 in 3.0 mi WSW 11.5 mph - N/A   Overcast
3:53 PM 44.6 °F 39.2 °F 44.1 °F 98% 29.87 in 4.0 mi WSW 10.4 mph - N/A   Overcast
4:53 PM 46.4 °F 41.9 °F 44.1 °F 92% 29.89 in 4.0 mi WSW 9.2 mph - N/A   Overcast
5:50 PM 46.4 °F 42.4 °F 44.6 °F 93% 29.93 in 4.0 mi West 8.1 mph - N/A   Overcast
5:53 PM 46.4 °F 43.5 °F 45.0 °F 95% 29.94 in 4.0 mi West 5.8 mph - N/A   Overcast
6:13 PM 44.6 °F 40.7 °F 44.6 °F 100% 29.94 in 4.0 mi West 6.9 mph - N/A   Overcast
6:53 PM 44.6 °F 42.2 °F 44.1 °F 98% 29.98 in 6.0 mi NW 4.6 mph - N/A   Overcast
7:21 PM 42.8 °F 39.3 °F 41.0 °F 93% 29.97 in 7.0 mi NW 5.8 mph - N/A   Overcast
7:33 PM 42.8 °F 39.3 °F 41.0 °F 93% 29.98 in 6.0 mi NW 5.8 mph - N/A   Overcast
7:53 PM 42.8 °F 38.6 °F 41.0 °F 93% 30.00 in 6.0 mi NW 6.9 mph - N/A   Overcast
8:23 PM 41.0 °F 37.1 °F 39.2 °F 93% 30.00 in 10.0 mi WNW 5.8 mph - N/A   Overcast
8:53 PM 41.0 °F 38.0 °F 39.0 °F 93% 30.02 in 10.0 mi WNW 4.6 mph - N/A   Overcast
9:33 PM 39.2 °F 35.0 °F 37.4 °F 93% 30.02 in 10.0 mi NW 5.8 mph - N/A   Overcast
9:53 PM 39.2 °F 35.9 °F 37.0 °F 92% 30.03 in 10.0 mi NNW 4.6 mph - N/A   Overcast
10:53 PM 39.2 °F - 36.0 °F 88% 30.04 in 10.0 mi Calm Calm - N/A   Overcast
11:50 PM - - - N/A% 30.02 in 10.0 mi North 4.6 mph - N/A   Overcast
11:53 PM - - - N/A% 30.02 in 10.0 mi North 4.6 mph - N/A   Overcast